Time,TemperatureF,DewpointF,PressureIn,WindDirection,WindDirectionDegrees,WindSpeedMPH,WindSpeedGustMPH,Humidity,HourlyPrecipIn,Conditions,Clouds,dailyrainin,SoftwareType,DateUTC
2013-07-15 00:01:00,71.3,65.5,30.14,SE,146,0.0,0.0,82,0.00,,,0.00,VWS V14.01,2013-07-15 05:01:00,
2013-07-15 00:06:00,71.2,65.4,30.14,SE,146,0.0,0.0,82,0.00,,,0.00,VWS V14.01,2013-07-15 05:06:00,
2013-07-15 00:11:00,71.1,65.7,30.14,SE,146,0.0,0.0,83,0.00,,,0.00,VWS V14.01,2013-07-15 05:11:00,
2013-07-15 00:16:00,71.0,65.2,30.14,SE,146,0.0,0.0,82,0.00,,,0.00,VWS V14.01,2013-07-15 05:16:00,
2013-07-15 00:21:00,71.0,65.2,30.14,SE,146,0.0,0.0,82,0.00,,,0.00,VWS V14.01,2013-07-15 05:21:00,
2013-07-15 00:26:00,71.0,65.2,30.14,SE,146,0.0,0.0,82,0.00,,,0.00,VWS V14.01,2013-07-15 05:26:00,
2013-07-15 00:31:00,71.0,65.2,30.14,SE,146,0.0,0.0,82,0.00,,,0.00,VWS V14.01,2013-07-15 05:31:00,
2013-07-15 00:36:00,71.2,65.4,30.14,SE,146,0.0,3.0,82,0.00,,,0.00,VWS V14.01,2013-07-15 05:36:00,
2013-07-15 00:41:00,71.2,65.1,30.14,SE,146,0.0,3.0,81,0.00,,,0.00,VWS V14.01,2013-07-15 05:41:00,
2013-07-15 00:46:00,71.3,65.2,30.14,SE,146,0.0,3.0,81,0.00,,,0.00,VWS V14.01,2013-07-15 05:46:00,
2013-07-15 00:51:00,71.4,65.3,30.14,SE,146,0.0,3.0,81,0.00,,,0.00,VWS V14.01,2013-07-15 05:51:00,
2013-07-15 00:56:00,71.6,65.1,30.14,SE,146,0.0,3.0,80,0.00,,,0.00,VWS V14.01,2013-07-15 05:56:00,
2013-07-15 01:01:00,71.7,65.2,30.14,SE,146,0.0,0.0,80,0.00,,,0.00,VWS V14.01,2013-07-15 06:01:00,
2013-07-15 01:06:00,71.9,65.4,30.15,SE,146,0.0,0.0,80,0.00,,,0.00,VWS V14.01,2013-07-15 06:06:00,
2013-07-15 01:12:00,71.9,65.4,30.15,SE,146,0.0,0.0,80,0.00,,,0.00,VWS V14.01,2013-07-15 06:12:00,
2013-07-15 01:17:00,71.9,65.4,30.15,SE,146,1.0,1.0,80,0.00,,,0.00,VWS V14.01,2013-07-15 06:17:00,
2013-07-15 01:22:00,71.9,65.0,30.15,SE,146,0.0,4.0,79,0.00,,,0.00,VWS V14.01,2013-07-15 06:22:00,
2013-07-15 01:27:00,71.9,65.4,30.15,SE,146,0.0,4.0,80,0.00,,,0.00,VWS V14.01,2013-07-15 06:27:00,
2013-07-15 01:32:00,71.8,65.3,30.15,SE,146,0.0,0.0,80,0.00,,,0.00,VWS V14.01,2013-07-15 06:32:00,
2013-07-15 01:37:00,71.7,65.6,30.14,SE,146,0.0,0.0,81,0.00,,,0.00,VWS V14.01,2013-07-15 06:37:00,
2013-07-15 01:42:00,71.6,64.8,30.14,SE,146,0.0,3.0,79,0.00,,,0.00,VWS V14.01,2013-07-15 06:42:00,
2013-07-15 01:47:00,71.5,64.7,30.14,SE,146,0.0,3.0,79,0.00,,,0.00,VWS V14.01,2013-07-15 06:47:00,
2013-07-15 01:52:00,71.5,64.7,30.14,SE,146,0.0,3.0,79,0.00,,,0.00,VWS V14.01,2013-07-15 06:52:00,
2013-07-15 01:57:00,71.4,64.9,30.14,SE,146,0.0,3.0,80,0.00,,,0.00,VWS V14.01,2013-07-15 06:57:00,
2013-07-15 02:00:00,71.3,64.8,30.14,SE,146,0.0,3.0,80,0.00,,,0.00,VWS V15.00,2013-07-15 07:00:00,
2013-07-15 02:02:00,71.3,64.5,30.14,SE,146,0.0,0.0,79,0.00,,,0.00,VWS V14.01,2013-07-15 07:02:00,
2013-07-15 02:07:00,71.2,64.7,30.14,SE,146,0.0,0.0,80,0.00,,,0.00,VWS V14.01,2013-07-15 07:07:00,
2013-07-15 02:12:00,71.1,64.6,30.14,SE,146,0.0,0.0,80,0.00,,,0.00,VWS V14.01,2013-07-15 07:12:00,
2013-07-15 02:17:00,71.0,64.5,30.14,SE,146,0.0,0.0,80,0.00,,,0.00,VWS V14.01,2013-07-15 07:17:00,
2013-07-15 02:22:00,70.9,64.4,30.14,SE,146,0.0,0.0,80,0.00,,,0.00,VWS V14.01,2013-07-15 07:22:00,
2013-07-15 02:27:00,70.7,64.2,30.14,SE,146,0.0,2.0,80,0.00,,,0.00,VWS V14.01,2013-07-15 07:27:00,
2013-07-15 02:32:00,70.7,64.2,30.14,SE,146,0.0,0.0,80,0.00,,,0.00,VWS V14.01,2013-07-15 07:32:00,
2013-07-15 02:37:00,70.6,64.1,30.14,SE,146,0.0,1.0,80,0.00,,,0.00,VWS V14.01,2013-07-15 07:37:00,
2013-07-15 02:42:00,70.5,64.4,30.14,SE,146,0.0,3.0,81,0.00,,,0.00,VWS V14.01,2013-07-15 07:42:00,
2013-07-15 02:47:00,70.4,63.9,30.14,SE,146,0.0,3.0,80,0.00,,,0.00,VWS V14.01,2013-07-15 07:47:00,
2013-07-15 02:52:00,70.3,64.2,30.14,SE,146,0.0,3.0,81,0.00,,,0.00,VWS V14.01,2013-07-15 07:52:00,
2013-07-15 02:57:00,70.2,64.1,30.14,SE,146,0.0,4.0,81,0.00,,,0.00,VWS V14.01,2013-07-15 07:57:00,
2013-07-15 03:00:00,70.2,63.8,30.14,SE,146,0.0,4.0,80,0.00,,,0.00,VWS V15.00,2013-07-15 08:00:00,
2013-07-15 03:02:00,70.2,63.8,30.14,SE,146,0.0,1.0,80,0.00,,,0.00,VWS V14.01,2013-07-15 08:02:00,
2013-07-15 03:08:00,70.1,63.7,30.14,SE,146,0.0,4.0,80,0.00,,,0.00,VWS V14.01,2013-07-15 08:08:00,
2013-07-15 03:13:00,70.1,63.7,30.14,SE,146,0.0,4.0,80,0.00,,,0.00,VWS V14.01,2013-07-15 08:13:00,
2013-07-15 03:18:00,70.0,63.5,30.14,SE,146,0.0,4.0,80,0.00,,,0.00,VWS V14.01,2013-07-15 08:18:00,
2013-07-15 03:23:00,70.0,63.9,30.14,SE,146,0.0,4.0,81,0.00,,,0.00,VWS V14.01,2013-07-15 08:23:00,
2013-07-15 03:28:00,69.9,63.5,30.14,SE,146,3.0,5.0,80,0.00,,,0.00,VWS V14.01,2013-07-15 08:28:00,
2013-07-15 03:33:00,69.9,63.8,30.14,SE,146,0.0,0.0,81,0.00,,,0.00,VWS V14.01,2013-07-15 08:33:00,
2013-07-15 03:38:00,69.8,63.7,30.14,SE,146,0.0,0.0,81,0.00,,,0.00,VWS V14.01,2013-07-15 08:38:00,
2013-07-15 03:43:00,69.7,63.6,30.14,SE,146,0.0,3.0,81,0.00,,,0.00,VWS V14.01,2013-07-15 08:43:00,
2013-07-15 03:48:00,69.7,63.6,30.14,SE,146,0.0,4.0,81,0.00,,,0.00,VWS V14.01,2013-07-15 08:48:00,
2013-07-15 03:53:00,69.6,63.5,30.14,SE,146,0.0,4.0,81,0.00,,,0.00,VWS V14.01,2013-07-15 08:53:00,
2013-07-15 03:58:00,69.5,63.4,30.14,SE,146,0.0,4.0,81,0.00,,,0.00,VWS V14.01,2013-07-15 08:58:00,
2013-07-15 04:03:00,69.5,63.4,30.14,SE,146,0.0,0.0,81,0.00,,,0.00,VWS V14.01,2013-07-15 09:03:00,
2013-07-15 04:08:00,69.4,63.3,30.14,SE,146,0.0,0.0,81,0.00,,,0.00,VWS V14.01,2013-07-15 09:08:00,
2013-07-15 04:13:00,69.3,63.2,30.15,SE,146,0.0,0.0,81,0.00,,,0.00,VWS V14.01,2013-07-15 09:13:00,
2013-07-15 04:18:00,69.1,63.0,30.15,SE,146,0.0,0.0,81,0.00,,,0.00,VWS V14.01,2013-07-15 09:18:00,
2013-07-15 04:23:00,69.0,63.3,30.14,SE,146,0.0,0.0,82,0.00,,,0.00,VWS V14.01,2013-07-15 09:23:00,
2013-07-15 04:28:00,68.9,63.2,30.15,SE,146,0.0,0.0,82,0.00,,,0.00,VWS V14.01,2013-07-15 09:28:00,
2013-07-15 04:33:00,68.8,63.1,30.15,SE,146,0.0,0.0,82,0.00,,,0.00,VWS V14.01,2013-07-15 09:33:00,
2013-07-15 04:38:00,68.7,63.0,30.15,SE,146,0.0,0.0,82,0.00,,,0.00,VWS V14.01,2013-07-15 09:38:00,
2013-07-15 04:43:00,68.6,63.2,30.15,SE,146,0.0,0.0,83,0.00,,,0.00,VWS V14.01,2013-07-15 09:43:00,
2013-07-15 04:48:00,68.5,63.1,30.15,SSE,147,0.0,0.0,83,0.00,,,0.00,VWS V14.01,2013-07-15 09:48:00,
2013-07-15 04:53:00,68.4,63.0,30.15,SE,146,0.0,0.0,83,0.00,,,0.00,VWS V14.01,2013-07-15 09:53:00,
2013-07-15 04:59:00,68.3,62.9,30.15,SSE,147,0.0,0.0,83,0.00,,,0.00,VWS V14.01,2013-07-15 09:59:00,
2013-07-15 05:04:00,68.2,62.8,30.15,SE,146,0.0,0.0,83,0.00,,,0.00,VWS V14.01,2013-07-15 10:04:00,
2013-07-15 05:09:00,68.1,62.8,30.15,SE,146,0.0,0.0,83,0.00,,,0.00,VWS V14.01,2013-07-15 10:09:00,
2013-07-15 05:14:00,68.1,62.8,30.15,SSE,147,0.0,0.0,83,0.00,,,0.00,VWS V14.01,2013-07-15 10:14:00,
2013-07-15 05:19:00,68.1,63.1,30.15,SE,146,0.0,0.0,84,0.00,,,0.00,VWS V14.01,2013-07-15 10:19:00,
2013-07-15 05:24:00,68.0,63.0,30.15,SSE,147,0.0,0.0,84,0.00,,,0.00,VWS V14.01,2013-07-15 10:24:00,
2013-07-15 05:29:00,68.0,63.0,30.15,SE,146,0.0,0.0,84,0.00,,,0.00,VWS V14.01,2013-07-15 10:29:00,
2013-07-15 05:34:00,67.8,62.8,30.15,SE,146,0.0,0.0,84,0.00,,,0.00,VWS V14.01,2013-07-15 10:34:00,
2013-07-15 05:39:00,67.7,62.7,30.15,SE,146,0.0,0.0,84,0.00,,,0.00,VWS V14.01,2013-07-15 10:39:00,
2013-07-15 05:44:00,67.5,62.5,30.16,SE,146,0.0,0.0,84,0.00,,,0.00,VWS V14.01,2013-07-15 10:44:00,
2013-07-15 05:49:00,67.5,62.5,30.16,SE,146,0.0,0.0,84,0.00,,,0.00,VWS V14.01,2013-07-15 10:49:00,
2013-07-15 05:54:00,67.5,62.5,30.16,SE,146,0.0,0.0,84,0.00,,,0.00,VWS V14.01,2013-07-15 10:54:00,
2013-07-15 05:59:00,67.4,62.4,30.16,SE,146,0.0,0.0,84,0.00,,,0.00,VWS V14.01,2013-07-15 10:59:00,
2013-07-15 06:04:00,67.5,62.8,30.16,SE,146,0.0,0.0,85,0.00,,,0.00,VWS V14.01,2013-07-15 11:04:00,
2013-07-15 06:09:00,67.4,62.7,30.16,SE,146,0.0,0.0,85,0.00,,,0.00,VWS V14.01,2013-07-15 11:09:00,
2013-07-15 06:14:00,67.4,62.4,30.16,SE,146,0.0,0.0,84,0.00,,,0.00,VWS V14.01,2013-07-15 11:14:00,
2013-07-15 06:19:00,67.4,62.7,30.16,SE,146,0.0,0.0,85,0.00,,,0.00,VWS V14.01,2013-07-15 11:19:00,
2013-07-15 06:24:00,67.5,62.8,30.16,SE,146,0.0,0.0,85,0.00,,,0.00,VWS V14.01,2013-07-15 11:24:00,
2013-07-15 06:29:00,67.6,62.9,30.16,SE,146,0.0,0.0,85,0.00,,,0.00,VWS V14.01,2013-07-15 11:29:00,
2013-07-15 06:34:00,67.7,63.0,30.16,SE,146,0.0,0.0,85,0.00,,,0.00,VWS V14.01,2013-07-15 11:34:00,
2013-07-15 06:40:00,68.1,63.4,30.16,SE,146,0.0,0.0,85,0.00,,,0.00,VWS V14.01,2013-07-15 11:40:00,
2013-07-15 06:45:00,68.6,63.6,30.17,SE,146,0.0,0.0,84,0.00,,,0.00,VWS V14.01,2013-07-15 11:45:00,
2013-07-15 06:50:00,69.2,64.2,30.17,SE,146,0.0,0.0,84,0.00,,,0.00,VWS V14.01,2013-07-15 11:50:00,
2013-07-15 06:55:00,69.9,64.5,30.17,SE,146,0.0,0.0,83,0.00,,,0.00,VWS V14.01,2013-07-15 11:55:00,
2013-07-15 07:00:00,70.6,64.8,30.17,SE,146,0.0,1.0,82,0.00,,,0.00,VWS V14.01,2013-07-15 12:00:00,
2013-07-15 07:05:00,71.3,65.2,30.17,SE,145,0.0,1.0,81,0.00,,,0.00,VWS V14.01,2013-07-15 12:05:00,
2013-07-15 07:10:00,71.9,65.4,30.17,SE,146,0.0,1.0,80,0.00,,,0.00,VWS V14.01,2013-07-15 12:10:00,
2013-07-15 07:15:00,72.4,65.5,30.17,SE,146,0.0,1.0,79,0.00,,,0.00,VWS V14.01,2013-07-15 12:15:00,
2013-07-15 07:20:00,73.2,65.9,30.17,SE,146,0.0,1.0,78,0.00,,,0.00,VWS V14.01,2013-07-15 12:20:00,
2013-07-15 07:25:00,73.8,66.2,30.17,SE,145,0.0,2.0,77,0.00,,,0.00,VWS V14.01,2013-07-15 12:25:00,
2013-07-15 07:30:00,74.3,66.6,30.17,SE,145,0.0,5.0,77,0.00,,,0.00,VWS V14.01,2013-07-15 12:30:00,
2013-07-15 07:35:00,74.8,66.7,30.17,SE,145,0.0,3.0,76,0.00,,,0.00,VWS V14.01,2013-07-15 12:35:00,
2013-07-15 07:40:00,75.3,66.8,30.17,SSE,156,3.0,6.0,75,0.00,,,0.00,VWS V14.01,2013-07-15 12:40:00,
2013-07-15 07:45:00,75.6,67.1,30.17,SSE,156,2.0,6.0,75,0.00,,,0.00,VWS V14.01,2013-07-15 12:45:00,
2013-07-15 07:50:00,75.7,66.8,30.17,SSE,156,0.0,6.0,74,0.00,,,0.00,VWS V14.01,2013-07-15 12:50:00,
2013-07-15 07:51:00,75.7,66.8,30.18,SSE,156,0.0,6.0,74,0.00,,,0.00,VWS V14.01,2013-07-15 12:51:00,
2013-07-15 07:56:00,75.9,67.0,30.18,SSE,149,2.0,6.0,74,0.00,,,0.00,VWS V14.01,2013-07-15 12:56:00,
2013-07-15 08:00:00,76.2,67.3,30.18,SSE,150,4.0,6.0,74,0.00,,,0.00,VWS V15.00,2013-07-15 13:00:00,
2013-07-15 08:01:00,76.2,67.3,30.18,SSE,149,1.0,4.0,74,0.00,,,0.00,VWS V14.01,2013-07-15 13:01:00,
2013-07-15 08:06:00,76.4,67.1,30.18,SSE,157,1.0,7.0,73,0.00,,,0.00,VWS V14.01,2013-07-15 13:06:00,
2013-07-15 08:11:00,76.8,67.1,30.18,South,174,0.0,7.0,72,0.00,,,0.00,VWS V14.01,2013-07-15 13:11:00,
2013-07-15 08:16:00,77.1,67.4,30.18,SSE,167,0.0,7.0,72,0.00,,,0.00,VWS V14.01,2013-07-15 13:16:00,
2013-07-15 08:21:00,77.6,67.9,30.18,SSE,166,0.0,7.0,72,0.00,,,0.00,VWS V14.01,2013-07-15 13:21:00,
2013-07-15 08:27:00,77.8,67.7,30.18,SSE,166,2.0,7.0,71,0.00,,,0.00,VWS V14.01,2013-07-15 13:27:00,
2013-07-15 08:32:00,78.1,67.9,30.18,SSE,149,1.0,5.0,71,0.00,,,0.00,VWS V14.01,2013-07-15 13:32:00,
2013-07-15 08:37:00,78.3,67.7,30.18,SSE,154,3.0,5.0,70,0.00,,,0.00,VWS V14.01,2013-07-15 13:37:00,
2013-07-15 08:42:00,78.7,68.1,30.18,SE,125,5.0,9.0,70,0.00,,,0.00,VWS V14.01,2013-07-15 13:42:00,
2013-07-15 08:47:00,78.9,68.3,30.18,SSE,166,6.0,9.0,70,0.00,,,0.00,VWS V14.01,2013-07-15 13:47:00,
2013-07-15 08:52:00,79.2,68.2,30.18,SSE,162,3.0,9.0,69,0.00,,,0.00,VWS V14.01,2013-07-15 13:52:00,
2013-07-15 08:57:00,79.4,68.3,30.18,SE,143,5.0,9.0,69,0.00,,,0.00,VWS V14.01,2013-07-15 13:57:00,
2013-07-15 09:02:00,79.5,68.9,30.18,SE,145,0.0,2.0,70,0.00,,,0.00,VWS V14.01,2013-07-15 14:02:00,
2013-07-15 09:07:00,79.7,68.6,30.19,SSE,164,3.0,8.0,69,0.00,,,0.00,VWS V14.01,2013-07-15 14:07:00,
2013-07-15 09:12:00,79.6,69.0,30.18,SSE,165,3.0,9.0,70,0.00,,,0.00,VWS V14.01,2013-07-15 14:12:00,
2013-07-15 09:17:00,79.7,68.6,30.19,SSE,154,5.0,9.0,69,0.00,,,0.00,VWS V14.01,2013-07-15 14:17:00,
2013-07-15 09:22:00,80.1,69.0,30.19,South,174,0.0,9.0,69,0.00,,,0.00,VWS V14.01,2013-07-15 14:22:00,
2013-07-15 09:27:00,80.3,69.2,30.19,South,179,1.0,9.0,69,0.00,,,0.00,VWS V14.01,2013-07-15 14:27:00,
2013-07-15 09:32:00,80.7,69.6,30.19,East,100,2.0,6.0,69,0.00,,,0.00,VWS V14.01,2013-07-15 14:32:00,
2013-07-15 09:37:00,80.9,69.4,30.19,SSE,163,5.0,7.0,68,0.00,,,0.00,VWS V14.01,2013-07-15 14:37:00,
2013-07-15 09:42:00,81.1,69.6,30.19,SSE,164,3.0,7.0,68,0.00,,,0.00,VWS V14.01,2013-07-15 14:42:00,
2013-07-15 09:47:00,81.2,69.2,30.19,SSE,167,5.0,7.0,67,0.00,,,0.00,VWS V14.01,2013-07-15 14:47:00,
2013-07-15 09:53:00,81.1,69.1,30.19,SSE,168,6.0,7.0,67,0.00,,,0.00,VWS V14.01,2013-07-15 14:53:00,
2013-07-15 09:59:00,81.5,69.5,30.18,South,180,2.0,7.0,67,0.00,,,0.00,VWS V14.01,2013-07-15 14:59:00,
2013-07-15 10:05:00,81.7,69.2,30.19,South,170,5.0,7.0,66,0.00,,,0.00,VWS V14.01,2013-07-15 15:05:00,
2013-07-15 10:10:00,81.8,69.8,30.19,South,181,4.0,7.0,67,0.00,,,0.00,VWS V14.01,2013-07-15 15:10:00,
2013-07-15 10:15:00,82.0,69.5,30.19,South,175,2.0,7.0,66,0.00,,,0.00,VWS V14.01,2013-07-15 15:15:00,
2013-07-15 10:21:00,82.0,70.4,30.18,South,175,1.0,7.0,68,0.00,,,0.00,VWS V14.01,2013-07-15 15:21:00,
2013-07-15 10:27:00,82.3,70.3,30.18,SSE,161,4.0,7.0,67,0.00,,,0.00,VWS V14.01,2013-07-15 15:27:00,
2013-07-15 10:32:00,82.6,70.5,30.19,SSE,167,3.0,4.0,67,0.00,,,0.00,VWS V14.01,2013-07-15 15:32:00,
2013-07-15 10:38:00,83.0,70.5,30.19,SE,144,4.0,4.0,66,0.00,,,0.00,VWS V14.01,2013-07-15 15:38:00,
2013-07-15 10:44:00,83.6,70.6,30.19,SE,135,0.0,6.0,65,0.00,,,0.00,VWS V14.01,2013-07-15 15:44:00,
2013-07-15 10:49:00,83.9,70.4,30.19,ESE,120,4.0,7.0,64,0.00,,,0.00,VWS V14.01,2013-07-15 15:49:00,
2013-07-15 10:54:00,84.3,70.8,30.19,East,94,3.0,7.0,64,0.00,,,0.00,VWS V14.01,2013-07-15 15:54:00,
2013-07-15 11:00:00,84.7,71.2,30.18,ESE,110,4.0,7.0,64,0.00,,,0.00,VWS V14.01,2013-07-15 16:00:00,
2013-07-15 11:06:00,84.7,71.2,30.18,SSE,153,4.0,6.0,64,0.00,,,0.00,VWS V14.01,2013-07-15 16:06:00,
2013-07-15 11:12:00,84.7,71.2,30.19,SSE,152,3.0,6.0,64,0.00,,,0.00,VWS V14.01,2013-07-15 16:12:00,
2013-07-15 11:18:00,85.0,71.9,30.18,SSE,160,3.0,6.0,65,0.00,,,0.00,VWS V14.01,2013-07-15 16:18:00,
2013-07-15 11:23:00,85.0,71.0,30.19,South,174,6.0,6.0,63,0.00,,,0.00,VWS V14.01,2013-07-15 16:23:00,
2013-07-15 11:28:00,85.1,71.1,30.19,SSE,154,4.0,7.0,63,0.00,,,0.00,VWS V14.01,2013-07-15 16:28:00,
2013-07-15 11:30:00,85.4,71.4,30.19,SE,125,0.0,7.0,63,0.00,,,0.00,VWS V15.00,2013-07-15 16:30:00,
2013-07-15 11:33:00,85.5,71.9,30.19,NE,50,4.0,6.0,64,0.00,,,0.00,VWS V14.01,2013-07-15 16:33:00,
2013-07-15 11:38:00,85.5,70.0,30.18,ESE,116,2.0,9.0,60,0.00,,,0.00,VWS V14.01,2013-07-15 16:38:00,
2013-07-15 11:43:00,85.7,71.2,30.18,ESE,121,0.0,10.0,62,0.00,,,0.00,VWS V14.01,2013-07-15 16:43:00,
2013-07-15 11:48:00,85.5,71.5,30.18,South,172,6.0,10.0,63,0.00,,,0.00,VWS V14.01,2013-07-15 16:48:00,
2013-07-15 11:54:00,85.4,71.4,30.18,SE,138,10.0,10.0,63,0.00,,,0.00,VWS V14.01,2013-07-15 16:54:00,
2013-07-15 11:59:00,85.5,71.0,30.18,East,82,2.0,10.0,62,0.00,,,0.00,VWS V14.01,2013-07-15 16:59:00,
2013-07-15 12:04:00,85.7,71.2,30.18,SSE,151,6.0,12.0,62,0.00,,,0.00,VWS V14.01,2013-07-15 17:04:00,
2013-07-15 12:09:00,85.8,71.3,30.18,SSE,166,9.0,12.0,62,0.00,,,0.00,VWS V14.01,2013-07-15 17:09:00,
2013-07-15 12:14:00,85.9,71.4,30.18,SE,133,4.0,12.0,62,0.00,,,0.00,VWS V14.01,2013-07-15 17:14:00,
2013-07-15 12:19:00,86.2,70.7,30.18,ESE,116,6.0,12.0,60,0.00,,,0.00,VWS V14.01,2013-07-15 17:19:00,
2013-07-15 12:25:00,86.6,71.6,30.17,South,182,5.0,12.0,61,0.00,,,0.00,VWS V14.01,2013-07-15 17:25:00,
2013-07-15 12:30:00,86.6,71.1,30.17,South,176,3.0,12.0,60,0.00,,,0.00,VWS V14.01,2013-07-15 17:30:00,
2013-07-15 12:35:00,86.5,71.5,30.17,SE,138,2.0,6.0,61,0.00,,,0.00,VWS V14.01,2013-07-15 17:35:00,
2013-07-15 12:40:00,86.6,70.6,30.17,ESE,120,4.0,12.0,59,0.00,,,0.00,VWS V14.01,2013-07-15 17:40:00,
2013-07-15 12:45:00,86.9,70.4,30.17,South,190,6.0,12.0,58,0.00,,,0.00,VWS V14.01,2013-07-15 17:45:00,
2013-07-15 12:51:00,87.0,70.4,30.17,SSE,166,3.0,12.0,58,0.00,,,0.00,VWS V14.01,2013-07-15 17:51:00,
2013-07-15 12:56:00,87.2,70.6,30.17,SSE,164,4.0,12.0,58,0.00,,,0.00,VWS V14.01,2013-07-15 17:56:00,
2013-07-15 13:00:00,87.2,69.6,30.17,SE,144,3.0,12.0,56,0.00,,,0.00,VWS V15.00,2013-07-15 18:00:00,
2013-07-15 13:01:00,87.3,70.2,30.17,SE,134,5.0,10.0,57,0.00,,,0.00,VWS V14.01,2013-07-15 18:01:00,
2013-07-15 13:07:00,87.1,71.0,30.17,ESE,116,11.0,12.0,59,0.00,,,0.00,VWS V14.01,2013-07-15 18:07:00,
2013-07-15 13:12:00,87.0,70.4,30.17,ESE,120,8.0,14.0,58,0.00,,,0.00,VWS V14.01,2013-07-15 18:12:00,
2013-07-15 13:17:00,86.9,70.9,30.17,East,100,4.0,14.0,59,0.00,,,0.00,VWS V14.01,2013-07-15 18:17:00,
2013-07-15 13:23:00,87.0,70.9,30.17,ESE,121,4.0,14.0,59,0.00,,,0.00,VWS V14.01,2013-07-15 18:23:00,
2013-07-15 13:28:00,87.1,71.0,30.17,ESE,108,4.0,14.0,59,0.00,,,0.00,VWS V14.01,2013-07-15 18:28:00,
2013-07-15 13:33:00,87.0,70.4,30.16,ESE,117,4.0,5.0,58,0.00,,,0.00,VWS V14.01,2013-07-15 18:33:00,
2013-07-15 13:39:00,86.8,69.8,30.16,ESE,108,4.0,11.0,57,0.00,,,0.00,VWS V14.01,2013-07-15 18:39:00,
2013-07-15 13:44:00,87.1,70.0,30.17,SSE,166,10.0,11.0,57,0.00,,,0.00,VWS V14.01,2013-07-15 18:44:00,
2013-07-15 13:49:00,86.8,69.8,30.17,SE,133,10.0,15.0,57,0.00,,,0.00,VWS V14.01,2013-07-15 18:49:00,
2013-07-15 13:54:00,87.0,69.9,30.16,SSE,147,2.0,15.0,57,0.00,,,0.00,VWS V14.01,2013-07-15 18:54:00,
2013-07-15 14:00:00,87.1,69.5,30.17,South,180,4.0,15.0,56,0.00,,,0.00,VWS V14.01,2013-07-15 19:00:00,
2013-07-15 14:05:00,87.1,69.5,30.16,South,184,5.0,11.0,56,0.00,,,0.00,VWS V14.01,2013-07-15 19:05:00,
2013-07-15 14:10:00,87.2,69.6,30.16,SSW,192,1.0,12.0,56,0.00,,,0.00,VWS V14.01,2013-07-15 19:10:00,
2013-07-15 14:16:00,87.3,70.7,30.16,ESE,120,7.0,12.0,58,0.00,,,0.00,VWS V14.01,2013-07-15 19:16:00,
2013-07-15 14:21:00,87.5,69.4,30.16,ESE,107,5.0,12.0,55,0.00,,,0.00,VWS V14.01,2013-07-15 19:21:00,
2013-07-15 14:26:00,87.6,70.5,30.16,ESE,104,9.0,13.0,57,0.00,,,0.00,VWS V14.01,2013-07-15 19:26:00,
2013-07-15 14:31:00,87.6,70.0,30.16,SE,144,1.0,5.0,56,0.00,,,0.00,VWS V14.01,2013-07-15 19:31:00,
2013-07-15 14:37:00,87.2,69.1,30.16,ESE,117,10.0,14.0,55,0.00,,,0.00,VWS V14.01,2013-07-15 19:37:00,
2013-07-15 14:42:00,87.0,69.4,30.16,SSE,158,2.0,14.0,56,0.00,,,0.00,VWS V14.01,2013-07-15 19:42:00,
2013-07-15 14:47:00,86.9,69.8,30.15,East,96,5.0,14.0,57,0.00,,,0.00,VWS V14.01,2013-07-15 19:47:00,
2013-07-15 14:52:00,86.7,69.1,30.15,SSE,148,6.0,14.0,56,0.00,,,0.00,VWS V14.01,2013-07-15 19:52:00,
2013-07-15 14:58:00,86.5,69.0,30.15,SSE,158,6.0,14.0,56,0.00,,,0.00,VWS V14.01,2013-07-15 19:58:00,
2013-07-15 15:03:00,86.6,68.5,30.15,SE,137,3.0,10.0,55,0.00,,,0.00,VWS V14.01,2013-07-15 20:03:00,
2013-07-15 15:08:00,87.0,70.4,30.15,ESE,106,2.0,10.0,58,0.00,,,0.00,VWS V14.01,2013-07-15 20:08:00,
2013-07-15 15:13:00,87.4,69.8,30.15,SSE,163,6.0,13.0,56,0.00,,,0.00,VWS V14.01,2013-07-15 20:13:00,
2013-07-15 15:18:00,87.5,69.4,30.15,SSE,160,5.0,13.0,55,0.00,,,0.00,VWS V14.01,2013-07-15 20:18:00,
2013-07-15 15:25:00,87.4,70.8,30.15,ESE,107,0.0,13.0,58,0.00,,,0.00,VWS V14.01,2013-07-15 20:25:00,
2013-07-15 15:30:00,87.6,69.4,30.15,SE,131,1.0,13.0,55,0.00,,,0.00,VWS V14.01,2013-07-15 20:30:00,
2013-07-15 15:35:00,87.7,69.5,30.15,SE,127,2.0,14.0,55,0.00,,,0.00,VWS V14.01,2013-07-15 20:35:00,
2013-07-15 15:40:00,87.6,69.4,30.15,South,174,5.0,14.0,55,0.00,,,0.00,VWS V14.01,2013-07-15 20:40:00,
2013-07-15 15:45:00,87.7,69.0,30.15,SE,141,6.0,14.0,54,0.00,,,0.00,VWS V14.01,2013-07-15 20:45:00,
2013-07-15 15:51:00,87.8,69.1,30.15,East,95,2.0,14.0,54,0.00,,,0.00,VWS V14.01,2013-07-15 20:51:00,
2013-07-15 15:57:00,87.8,68.6,30.15,SSE,156,7.0,14.0,53,0.00,,,0.00,VWS V14.01,2013-07-15 20:57:00,
2013-07-15 16:02:00,87.8,69.1,30.14,SSE,156,7.0,7.0,54,0.00,,,0.00,VWS V14.01,2013-07-15 21:02:00,
2013-07-15 16:07:00,88.1,68.8,30.14,SSE,164,4.0,14.0,53,0.00,,,0.00,VWS V14.01,2013-07-15 21:07:00,
2013-07-15 16:12:00,88.4,70.7,30.14,ESE,110,1.0,14.0,56,0.00,,,0.00,VWS V14.01,2013-07-15 21:12:00,
2013-07-15 16:18:00,88.5,70.8,30.14,South,180,7.0,14.0,56,0.00,,,0.00,VWS V14.01,2013-07-15 21:18:00,
2013-07-15 16:23:00,88.1,68.8,30.14,SSE,166,4.0,14.0,53,0.00,,,0.00,VWS V14.01,2013-07-15 21:23:00,
2013-07-15 16:28:00,87.9,69.7,30.14,SE,137,2.0,14.0,55,0.00,,,0.00,VWS V14.01,2013-07-15 21:28:00,
2013-07-15 16:30:00,87.9,69.2,30.14,SSE,160,3.0,14.0,54,0.00,,,0.00,VWS V15.00,2013-07-15 21:30:00,
2013-07-15 16:34:00,88.0,68.7,30.14,SSE,154,6.0,10.0,53,0.00,,,0.00,VWS V14.01,2013-07-15 21:34:00,
2013-07-15 16:39:00,87.9,69.2,30.14,SSE,159,2.0,11.0,54,0.00,,,0.00,VWS V14.01,2013-07-15 21:39:00,
2013-07-15 16:44:00,87.8,69.1,30.14,South,177,6.0,13.0,54,0.00,,,0.00,VWS V14.01,2013-07-15 21:44:00,
2013-07-15 16:50:00,87.6,68.9,30.14,South,180,4.0,13.0,54,0.00,,,0.00,VWS V14.01,2013-07-15 21:50:00,
2013-07-15 16:55:00,87.5,68.8,30.14,South,179,4.0,13.0,54,0.00,,,0.00,VWS V14.01,2013-07-15 21:55:00,
2013-07-15 17:00:00,87.6,68.4,30.14,SSE,157,10.0,13.0,53,0.00,,,0.00,VWS V15.00,2013-07-15 22:00:00,
2013-07-15 17:01:00,87.6,68.4,30.14,South,177,4.0,13.0,53,0.00,,,0.00,VWS V14.01,2013-07-15 22:01:00,
2013-07-15 17:06:00,87.6,69.4,30.14,South,179,1.0,10.0,55,0.00,,,0.00,VWS V14.01,2013-07-15 22:06:00,
2013-07-15 17:11:00,87.8,69.6,30.13,SE,144,1.0,10.0,55,0.00,,,0.00,VWS V14.01,2013-07-15 22:11:00,
2013-07-15 17:17:00,88.1,69.4,30.13,SE,128,2.0,10.0,54,0.00,,,0.00,VWS V14.01,2013-07-15 22:17:00,
2013-07-15 17:22:00,88.2,69.5,30.13,South,174,2.0,11.0,54,0.00,,,0.00,VWS V14.01,2013-07-15 22:22:00,
2013-07-15 17:27:00,88.2,69.5,30.13,South,173,3.0,14.0,54,0.00,,,0.00,VWS V14.01,2013-07-15 22:27:00,
2013-07-15 17:33:00,88.3,70.1,30.13,SE,133,4.0,7.0,55,0.00,,,0.00,VWS V14.01,2013-07-15 22:33:00,
2013-07-15 17:38:00,88.3,69.6,30.13,SSE,164,3.0,13.0,54,0.00,,,0.00,VWS V14.01,2013-07-15 22:38:00,
2013-07-15 17:43:00,88.2,70.5,30.13,SSE,152,4.0,13.0,56,0.00,,,0.00,VWS V14.01,2013-07-15 22:43:00,
2013-07-15 17:49:00,88.1,69.4,30.12,South,171,2.0,13.0,54,0.00,,,0.00,VWS V14.01,2013-07-15 22:49:00,
2013-07-15 17:54:00,88.2,70.5,30.12,SE,134,1.0,13.0,56,0.00,,,0.00,VWS V14.01,2013-07-15 22:54:00,
2013-07-15 17:59:00,88.1,69.9,30.12,SSE,161,2.0,13.0,55,0.00,,,0.00,VWS V14.01,2013-07-15 22:59:00,
2013-07-15 18:00:00,88.1,69.9,30.12,SE,129,3.0,13.0,55,0.00,,,0.00,VWS V15.00,2013-07-15 23:00:00,
2013-07-15 18:04:00,88.1,69.9,30.12,SE,127,5.0,7.0,55,0.00,,,0.00,VWS V14.01,2013-07-15 23:04:00,
2013-07-15 18:09:00,88.1,70.4,30.12,SE,137,5.0,9.0,56,0.00,,,0.00,VWS V14.01,2013-07-15 23:09:00,
2013-07-15 18:15:00,88.1,69.9,30.12,ESE,114,2.0,9.0,55,0.00,,,0.00,VWS V14.01,2013-07-15 23:15:00,
2013-07-15 18:21:00,88.2,69.5,30.12,ESE,116,5.0,9.0,54,0.00,,,0.00,VWS V14.01,2013-07-15 23:21:00,
2013-07-15 18:26:00,88.1,70.4,30.12,ESE,115,1.0,9.0,56,0.00,,,0.00,VWS V14.01,2013-07-15 23:26:00,
2013-07-15 18:31:00,88.2,70.5,30.12,ESE,119,4.0,9.0,56,0.00,,,0.00,VWS V14.01,2013-07-15 23:31:00,
2013-07-15 18:36:00,88.1,70.4,30.12,SE,128,0.0,5.0,56,0.00,,,0.00,VWS V14.01,2013-07-15 23:36:00,
2013-07-15 18:41:00,88.0,71.4,30.12,SE,128,3.0,5.0,58,0.00,,,0.00,VWS V14.01,2013-07-15 23:41:00,
2013-07-15 18:47:00,87.9,70.8,30.12,SE,125,3.0,6.0,57,0.00,,,0.00,VWS V14.01,2013-07-15 23:47:00,
2013-07-15 18:52:00,87.7,70.6,30.11,SE,133,3.0,6.0,57,0.00,,,0.00,VWS V14.01,2013-07-15 23:52:00,
2013-07-15 18:58:00,87.4,70.3,30.12,SE,134,0.0,6.0,57,0.00,,,0.00,VWS V14.01,2013-07-15 23:58:00,
2013-07-15 19:00:00,87.3,71.2,30.11,SE,133,0.0,6.0,59,0.00,,,0.00,VWS V15.00,2013-07-16 00:00:00,
2013-07-15 19:03:00,87.2,71.1,30.11,SE,133,2.0,2.0,59,0.00,,,0.00,VWS V14.01,2013-07-16 00:03:00,
2013-07-15 19:08:00,87.3,70.2,30.11,SE,133,2.0,5.0,57,0.00,,,0.00,VWS V14.01,2013-07-16 00:08:00,
2013-07-15 19:14:00,87.4,70.3,30.11,ESE,112,1.0,5.0,57,0.00,,,0.00,VWS V14.01,2013-07-16 00:14:00,
2013-07-15 19:19:00,87.5,70.4,30.11,ESE,117,3.0,5.0,57,0.00,,,0.00,VWS V14.01,2013-07-16 00:19:00,
2013-07-15 19:24:00,87.6,70.5,30.11,ESE,117,3.0,5.0,57,0.00,,,0.00,VWS V14.01,2013-07-16 00:24:00,
2013-07-15 19:29:00,87.6,71.0,30.11,ESE,116,2.0,5.0,58,0.00,,,0.00,VWS V14.01,2013-07-16 00:29:00,
2013-07-15 19:34:00,87.5,70.9,30.11,ESE,116,0.0,2.0,58,0.00,,,0.00,VWS V14.01,2013-07-16 00:34:00,
2013-07-15 19:40:00,87.4,71.3,30.11,ESE,116,1.0,3.0,59,0.00,,,0.00,VWS V14.01,2013-07-16 00:40:00,
2013-07-15 19:45:00,87.4,71.8,30.11,ESE,116,0.0,3.0,60,0.00,,,0.00,VWS V14.01,2013-07-16 00:45:00,
2013-07-15 19:50:00,87.3,71.2,30.11,ESE,117,0.0,4.0,59,0.00,,,0.00,VWS V14.01,2013-07-16 00:50:00,
2013-07-15 19:56:00,87.2,71.1,30.11,ESE,117,0.0,4.0,59,0.00,,,0.00,VWS V14.01,2013-07-16 00:56:00,
2013-07-15 20:01:00,87.3,71.7,30.11,ESE,117,0.0,0.0,60,0.00,,,0.00,VWS V14.01,2013-07-16 01:01:00,
2013-07-15 20:06:00,87.4,72.8,30.11,ESE,117,0.0,0.0,62,0.00,,,0.00,VWS V14.01,2013-07-16 01:06:00,
2013-07-15 20:12:00,87.2,72.1,30.11,ESE,117,0.0,1.0,61,0.00,,,0.00,VWS V14.01,2013-07-16 01:12:00,
2013-07-15 20:17:00,86.8,73.2,30.10,ESE,117,0.0,1.0,64,0.00,,,0.00,VWS V14.01,2013-07-16 01:17:00,
2013-07-15 20:22:00,86.2,72.6,30.10,ESE,117,0.0,1.0,64,0.00,,,0.00,VWS V14.01,2013-07-16 01:22:00,
2013-07-15 20:28:00,85.8,72.7,30.11,ESE,117,0.0,1.0,65,0.00,,,0.00,VWS V14.01,2013-07-16 01:28:00,
2013-07-15 20:34:00,85.5,72.8,30.10,ESE,117,0.0,0.0,66,0.00,,,0.00,VWS V14.01,2013-07-16 01:34:00,
2013-07-15 20:39:00,85.0,72.8,30.10,ESE,117,0.0,0.0,67,0.00,,,0.00,VWS V14.01,2013-07-16 01:39:00,
2013-07-15 20:45:00,84.1,72.4,30.10,ESE,117,0.0,0.0,68,0.00,,,0.00,VWS V14.01,2013-07-16 01:45:00,
2013-07-15 20:50:00,83.3,71.6,30.10,ESE,117,0.0,0.0,68,0.00,,,0.00,VWS V14.01,2013-07-16 01:50:00,
2013-07-15 20:55:00,82.5,71.7,30.10,ESE,117,0.0,0.0,70,0.00,,,0.00,VWS V14.01,2013-07-16 01:55:00,
2013-07-15 21:01:00,81.8,71.5,30.10,ESE,117,0.0,0.0,71,0.00,,,0.00,VWS V14.01,2013-07-16 02:01:00,
2013-07-15 21:06:00,81.2,71.3,30.10,ESE,117,0.0,0.0,72,0.00,,,0.00,VWS V14.01,2013-07-16 02:06:00,
2013-07-15 21:11:00,80.5,70.7,30.11,ESE,117,0.0,0.0,72,0.00,,,0.00,VWS V14.01,2013-07-16 02:11:00,
2013-07-15 21:17:00,80.0,70.6,30.11,ESE,117,0.0,0.0,73,0.00,,,0.00,VWS V14.01,2013-07-16 02:17:00,
2013-07-15 21:22:00,79.3,69.9,30.11,ESE,117,0.0,0.0,73,0.00,,,0.00,VWS V14.01,2013-07-16 02:22:00,
2013-07-15 21:27:00,78.8,69.8,30.11,ESE,117,0.0,0.0,74,0.00,,,0.00,VWS V14.01,2013-07-16 02:27:00,
2013-07-15 21:30:00,78.5,69.5,30.11,ESE,118,0.0,0.0,74,0.00,,,0.00,VWS V14.01,2013-07-16 02:30:00,
2013-07-15 21:33:00,78.4,69.8,30.11,ESE,117,0.0,0.0,75,0.00,,,0.00,VWS V14.01,2013-07-16 02:33:00,
2013-07-15 21:39:00,78.1,69.5,30.11,ESE,118,0.0,0.0,75,0.00,,,0.00,VWS V14.01,2013-07-16 02:39:00,
2013-07-15 21:45:00,77.8,69.2,30.11,ESE,118,0.0,0.0,75,0.00,,,0.00,VWS V14.01,2013-07-16 02:45:00,
2013-07-15 21:51:00,77.6,69.4,30.11,ESE,118,0.0,0.0,76,0.00,,,0.00,VWS V14.01,2013-07-16 02:51:00,
2013-07-15 21:56:00,77.4,69.2,30.11,ESE,118,0.0,0.0,76,0.00,,,0.00,VWS V14.01,2013-07-16 02:56:00,
2013-07-15 22:00:00,77.2,69.1,30.11,ESE,118,0.0,0.0,76,0.00,,,0.00,VWS V14.01,2013-07-16 03:00:00,
2013-07-15 22:02:00,77.2,69.1,30.11,ESE,118,0.0,0.0,76,0.00,,,0.00,VWS V14.01,2013-07-16 03:02:00,
2013-07-15 22:08:00,77.0,68.9,30.11,ESE,118,0.0,0.0,76,0.00,,,0.00,VWS V14.01,2013-07-16 03:08:00,
2013-07-15 22:13:00,76.9,68.8,30.12,ESE,118,0.0,0.0,76,0.00,,,0.00,VWS V14.01,2013-07-16 03:13:00,
2013-07-15 22:19:00,76.8,68.7,30.12,ESE,118,0.0,0.0,76,0.00,,,0.00,VWS V14.01,2013-07-16 03:19:00,
2013-07-15 22:24:00,76.7,68.6,30.12,ESE,118,0.0,0.0,76,0.00,,,0.00,VWS V14.01,2013-07-16 03:24:00,
2013-07-15 22:32:00,76.6,68.9,30.12,ESE,118,0.0,0.0,77,0.00,,,0.00,VWS V14.01,2013-07-16 03:32:00,
2013-07-15 22:38:00,76.4,68.7,30.11,ESE,117,0.0,0.0,77,0.00,,,0.00,VWS V14.01,2013-07-16 03:38:00,
2013-07-15 22:43:00,76.3,68.6,30.11,ESE,117,0.0,0.0,77,0.00,,,0.00,VWS V14.01,2013-07-16 03:43:00,
2013-07-15 22:48:00,76.2,68.5,30.11,ESE,118,0.0,0.0,77,0.00,,,0.00,VWS V14.01,2013-07-16 03:48:00,
2013-07-15 22:54:00,76.1,68.8,30.11,ESE,118,0.0,0.0,78,0.00,,,0.00,VWS V14.01,2013-07-16 03:54:00,
2013-07-15 23:00:00,76.0,68.3,30.11,ESE,118,0.0,0.0,77,0.00,,,0.00,VWS V14.01,2013-07-16 04:00:00,
2013-07-15 23:01:00,76.0,68.3,30.11,ESE,118,0.0,0.0,77,0.00,,,0.00,VWS V14.01,2013-07-16 04:01:00,
2013-07-15 23:02:00,76.0,68.3,30.11,ESE,118,0.0,0.0,77,0.00,,,0.00,VWS V14.01,2013-07-16 04:02:00,
2013-07-15 23:03:00,75.9,68.2,30.11,ESE,118,0.0,0.0,77,0.00,,,0.00,VWS V14.01,2013-07-16 04:03:00,
2013-07-15 23:08:00,76.0,68.7,30.11,ESE,118,0.0,0.0,78,0.00,,,0.00,VWS V14.01,2013-07-16 04:08:00,
2013-07-15 23:13:00,76.0,68.3,30.12,ESE,119,0.0,0.0,77,0.00,,,0.00,VWS V14.01,2013-07-16 04:13:00,
2013-07-15 23:18:00,76.0,68.3,30.11,ESE,118,0.0,1.0,77,0.00,,,0.00,VWS V14.01,2013-07-16 04:18:00,
2013-07-15 23:23:00,76.1,68.8,30.11,ESE,118,0.0,1.0,78,0.00,,,0.00,VWS V14.01,2013-07-16 04:23:00,
2013-07-15 23:28:00,76.0,68.3,30.11,ESE,118,0.0,1.0,77,0.00,,,0.00,VWS V14.01,2013-07-16 04:28:00,
2013-07-15 23:30:00,76.1,68.4,30.11,ESE,118,0.0,1.0,77,0.00,,,0.00,VWS V14.01,2013-07-16 04:30:00,
2013-07-15 23:33:00,76.1,68.8,30.12,ESE,118,0.0,0.0,78,0.00,,,0.00,VWS V14.01,2013-07-16 04:33:00,
2013-07-15 23:38:00,76.2,68.5,30.11,ESE,104,1.0,4.0,77,0.00,,,0.00,VWS V14.01,2013-07-16 04:38:00,
2013-07-15 23:43:00,76.4,68.7,30.11,ESE,103,1.0,4.0,77,0.00,,,0.00,VWS V14.01,2013-07-16 04:43:00,
2013-07-15 23:48:00,76.6,68.9,30.12,ESE,102,0.0,4.0,77,0.00,,,0.00,VWS V14.01,2013-07-16 04:48:00,
2013-07-15 23:54:00,76.6,68.9,30.12,ESE,102,0.0,4.0,77,0.00,,,0.00,VWS V14.01,2013-07-16 04:54:00,
2013-07-15 23:59:00,76.6,68.9,30.12,ESE,102,0.0,4.0,77,0.00,,,0.00,VWS V14.01,2013-07-16 04:59:00,